Location: ????
(30.1475°N, 31.1342°E)
Time: 02:04:11
(UTC+00:00)

CENTAUR R/B - Pass Details

Date: 27 September 2022
Orbit: 705 x 1482 km, 63.4° (Epoch: 24 November)

Event Time Altitude Azimuth Distance (km) Brightness Sun altitude
Rises 03:14:35 0° 224° (SW) 3,195 4.8 -7.7°
Reaches altitude 10° 03:16:53 10° 230° (SW) 2,336 4.0 -7.2°
Maximum altitude 03:22:03 48° 304° (NW) 1,125 2.6 -6.1°
Drops below altitude 10° 03:28:12 10° 18° (NNE) 2,779 5.2 -4.8°
Sets 03:31:10 0° 24° (NNE) 3,863 6.0 -4.1°
